TimeCET,TemperatureF,Dew PointF,Humidity,Sea Level PressureIn,VisibilityMPH,Wind Direction,Wind SpeedMPH,Gust SpeedMPH,PrecipitationIn,Events,Conditions,WindDirDegrees,DateUTC
12:00 AM,41.0,39.2,93,30.21,6.2,WSW,10.4,-,N/A,,Mostly Cloudy,240,2012-11-07 23:00:00
1:00 AM,41.0,39.2,93,30.21,6.2,WSW,10.4,23.0,N/A,,Mostly Cloudy,240,2012-11-08 00:00:00
2:00 AM,41.0,39.2,93,30.18,6.2,WSW,10.4,-,N/A,,Mostly Cloudy,240,2012-11-08 01:00:00
3:00 AM,41.0,37.4,87,30.18,6.2,WSW,8.1,19.6,N/A,,Mostly Cloudy,240,2012-11-08 02:00:00
4:01 AM,41.0,37.4,87,30.18,6.2,WSW,9.2,-,N/A,,Mostly Cloudy,240,2012-11-08 03:01:00
5:00 AM,39.2,37.4,93,30.15,6.2,WSW,9.2,-,N/A,,Mostly Cloudy,240,2012-11-08 04:00:00
6:00 AM,39.2,37.4,93,30.15,6.2,WSW,11.5,-,N/A,,Mostly Cloudy,240,2012-11-08 05:00:00
7:00 AM,39.2,35.6,87,30.12,6.2,WSW,8.1,-,N/A,,Mostly Cloudy,240,2012-11-08 06:00:00
7:30 AM,39.2,35.6,87,30.12,6.2,WSW,8.1,-,N/A,,Mostly Cloudy,250,2012-11-08 06:30:00
8:00 AM,39.2,35.6,87,30.12,6.2,SW,5.8,-,N/A,,Mostly Cloudy,230,2012-11-08 07:00:00
8:30 AM,39.2,35.6,87,30.12,6.2,WSW,8.1,-,N/A,,Mostly Cloudy,240,2012-11-08 07:30:00
9:00 AM,39.2,37.4,93,30.12,6.2,WSW,8.1,-,N/A,,Overcast,240,2012-11-08 08:00:00
9:30 AM,39.2,37.4,93,30.12,6.2,WSW,5.8,-,N/A,,Overcast,250,2012-11-08 08:30:00
10:00 AM,39.2,37.4,93,30.12,6.2,WSW,9.2,-,N/A,,Overcast,240,2012-11-08 09:00:00
10:30 AM,39.2,35.6,87,30.12,6.2,WSW,13.8,-,N/A,,Mostly Cloudy,240,2012-11-08 09:30:00
11:00 AM,39.2,35.6,87,30.12,6.2,WSW,13.8,-,N/A,,Mostly Cloudy,240,2012-11-08 10:00:00
11:30 AM,41.0,37.4,87,30.09,6.2,WSW,10.4,-,N/A,,Mostly Cloudy,240,2012-11-08 10:30:00
12:00 PM,41.0,37.4,87,30.09,6.2,WSW,10.4,-,N/A,,Mostly Cloudy,240,2012-11-08 11:00:00
12:30 PM,41.0,37.4,87,30.09,6.2,WSW,9.2,-,N/A,,Mostly Cloudy,240,2012-11-08 11:30:00
1:00 PM,41.0,37.4,87,30.06,6.2,WSW,11.5,-,N/A,,Mostly Cloudy,240,2012-11-08 12:00:00
1:30 PM,41.0,37.4,87,30.06,6.2,WSW,11.5,-,N/A,,Mostly Cloudy,240,2012-11-08 12:30:00
2:00 PM,41.0,37.4,87,30.06,6.2,WSW,10.4,-,N/A,,Mostly Cloudy,250,2012-11-08 13:00:00
2:30 PM,41.0,37.4,87,30.04,6.2,WSW,9.2,-,N/A,,Mostly Cloudy,250,2012-11-08 13:30:00
3:00 PM,41.0,37.4,87,30.04,6.2,WSW,11.5,-,N/A,,Mostly Cloudy,250,2012-11-08 14:00:00
3:30 PM,41.0,37.4,87,30.04,6.2,WSW,8.1,-,N/A,,Mostly Cloudy,240,2012-11-08 14:30:00
4:00 PM,41.0,37.4,87,30.04,6.2,WSW,8.1,-,N/A,,Overcast,240,2012-11-08 15:00:00
4:30 PM,41.0,37.4,87,30.04,6.2,WSW,9.2,-,N/A,,Overcast,240,2012-11-08 15:30:00
5:00 PM,41.0,37.4,87,30.04,6.2,WSW,10.4,-,N/A,,Overcast,250,2012-11-08 16:00:00
5:30 PM,41.0,37.4,87,30.04,6.2,WSW,6.9,-,N/A,,Overcast,240,2012-11-08 16:30:00
6:00 PM,41.0,37.4,87,30.04,6.2,WSW,8.1,-,N/A,,Overcast,250,2012-11-08 17:00:00
6:30 PM,41.0,37.4,87,30.04,6.2,WSW,9.2,-,N/A,,Overcast,250,2012-11-08 17:30:00
7:00 PM,41.0,37.4,87,30.04,6.2,WSW,9.2,-,N/A,,Overcast,240,2012-11-08 18:00:00
7:30 PM,41.0,35.6,81,30.04,6.2,WSW,10.4,-,N/A,,Overcast,250,2012-11-08 18:30:00
8:00 PM,39.2,35.6,87,30.04,6.2,WSW,8.1,-,N/A,,Overcast,240,2012-11-08 19:00:00
9:00 PM,41.0,35.6,81,30.04,6.2,WSW,10.4,-,N/A,Rain,Light Rain,250,2012-11-08 20:00:00
10:00 PM,39.2,35.6,87,30.04,6.2,WSW,9.2,-,N/A,Rain,Light Rain,250,2012-11-08 21:00:00
11:00 PM,39.2,37.4,93,30.04,6.2,West,9.2,-,N/A,,Overcast,260,2012-11-08 22:00:00